Regional Weather Roundup
Issued by NWS Upton, NY

Current Version | Previous Version | Text Only | Print | Product List | Glossary On
Versions: 1 2 3 4 5 6 7 8 9 10 11 12 13 14 15 16 17 18 19 20 21 22 23 24 25 26 27 28 29 30 31 32 33 34 35 36 37 38 39 40 41 42 43 44 45 46 47 48 49 50
000
ASUS41 KOKX 251507
RWROKX

REGIONAL WEATHER ROUNDUP
NATIONAL WEATHER SERVICE NEW YORK NY
1100 AM EDT SAT APR 25 2015

NOTE: "FAIR" INDICATES FEW OR NO CLOUDS BELOW 12,000 FEET WITH NO
SIGNIFICANT WEATHER AND/OR OBSTRUCTIONS TO VISIBILITY.

NYZ071-072-176-178-NJZ106-104-251600-
NEW YORK CITY METRO AREA


CITY           SKY/WX    TMP DP  RH WIND       PRES   REMARKS
CENTRAL PARK   SUNNY     49  22  34 MISG      29.89F
LAGUARDIA APRT PTSUNNY   48  23  37 NW14      29.87S
KENNEDY INTL   MOSUNNY   50  22  33 W14       29.88S
NEWARK/LIBERTY MOSUNNY   50  23  34 NW13G22   29.88F
BRNX BOT. GARD   N/A     48  25  40 N3        29.88S
TETERBORO      SUNNY     48  24  39 NW13G18   29.87F
$$

NYZ177-179-078>081-251600-
LONG ISLAND NEW YORK

CITY           SKY/WX    TMP DP  RH WIND       PRES   REMARKS
FARMINGDALE    SUNNY     48  23  37 NW13      29.86F
ISLIP          MOSUNNY   47  24  40 W14G22    29.83F
SHIRLEY        SUNNY     47  24  40 NW9G22    29.85S
WESTHAMPTON    SUNNY     47  23  38 NW16      29.85S
MONTAUK POINT    N/A     46  26  45 W10G20    29.82F
$$

NYZ052-065-067-251600-
HUDSON VALLEY

CITY           SKY/WX    TMP DP  RH WIND       PRES   REMARKS
WHITE PLAINS   SUNNY     45  24  43 NW13      29.84F
NEWBURGH       SUNNY     46  28  49 W12       29.86F
MONTGOMERY     SUNNY     48  26  42 W14G20    29.85F
POUGHKEEPSIE   SUNNY     47  25  42 W10       29.85F
ALBANY         MOSUNNY   46  23  40 NW17      29.84F
$$

NJZ001-105-106-008-010-013-015-019>022-104-251600-
NEW JERSEY

CITY           SKY/WX    TMP DP  RH WIND       PRES   REMARKS
NEWARK/LIBERTY MOSUNNY   50  23  34 NW13G22   29.88F
TETERBORO      SUNNY     48  24  39 NW13G18   29.87F
CALDWELL       SUNNY     48  23  37 VRB6      29.88F
MORRISTOWN     MOSUNNY   48  23  37 NW7G21    29.89F
SOMERVILLE     MOSUNNY   49  23  36 VRB7      29.87F
SUSSEX         SUNNY     47  24  40 MISG      29.87F
ANDOVER          N/A     46  22  38 N8        29.87F
TRENTON        PTSUNNY   46  22  38 NW6       29.90F
MILLVILLE      CLOUDY    47  24  40 NW9       29.94S
ATLANTIC CITY  CLOUDY    47  23  38 NW8       29.92F
WRIGHTSTOWN    CLOUDY    47  24  40 NW8       29.89F
TOMS RIVER     PTSUNNY   46  21  36 NW10      29.91F
BELMAR         PTSUNNY   46  21  36 W14G20    29.88F
$$

PAZ047>061-062-071-251600-
EASTERN PENNSYLVANIA

CITY           SKY/WX    TMP DP  RH WIND       PRES   REMARKS
PHILADELPHIA   CLOUDY    47  22  37 CALM      29.93F
ALLENTOWN      MOSUNNY   47  24  40 VRB5      29.90F
SCRANTON       SUNNY     44  23  43 N3        29.89F
$$

CTZ002-004>006-009-010-012-RIZ004-006-007-MAZ004-011-015-251600-
SOUTHERN NEW ENGLAND
 IN CT

CITY           SKY/WX    TMP DP  RH WIND       PRES   REMARKS
BRADLEY INTL   MOSUNNY   49  23  36 N8        29.79F
HARTFORD       SUNNY     48  24  39 W8        29.81F
DANBURY        SUNNY     46  23  40 W10G17    29.84F
WTRBRY/OXFORD  SUNNY     45  23  42 NW13G20   29.83S
BRIDGEPORT     SUNNY     49  24  37 W12G20    29.84F
MERIDEN        SUNNY     50  23  34 W9G18     29.81F
NEW HAVEN      SUNNY     48  24  39 NW8       29.82F
CHESTER        FAIR      45  25  45 NW9       29.81S
GROTON         SUNNY     49  23  36 NW9       29.79F
WILLIMANTIC    SUNNY     46  24  42 NW10      29.79F

 IN RI

CITY           SKY/WX    TMP DP  RH WIND       PRES   REMARKS
PROVIDENCE     SUNNY     49  24  37 W8G18     29.77F
BLOCK ISLAND   SUNNY     45  27  49 W12G17    29.80F
WESTERLY       SUNNY     50  25  37 VRB6      29.79F

 IN MA

CITY           SKY/WX    TMP DP  RH WIND       PRES   REMARKS
BOSTON         MOSUNNY   48  25  40 NW12G21   29.74F
WORCESTER      SUNNY     44  22  41 NW9G20    29.74F
WESTFIELD      SUNNY     49  23  36 NW13      29.79F
PROVINCETOWN   SUNNY    N/A N/A N/A NW13      29.75F
NANTUCKET      SUNNY     46  25  43 W10G20    29.76F
$$

ANZ330-335-338-340-345-350-353-355-251600-
COASTAL MARINE OBSERVATIONS


STATION/POSITION TIME  SKY/WX   TEMP    WIND        PRES    VSBY  WAVE
                                AIR SEA DIR/SP/G                  HT/PER
                 (UTC)          (F)     (DEG/KT/KT) (MB)    (MI)  (FT/S)
NY HARB ENTRANCE 1450            43 44  300/ 16/ 17 1011.4          2/ 3
4S FIRE IS       1403               43                N/A           2/ 4
20S FIRE ISLAND  1450            41 43  300/ 16/ 17 1011.5          3/ 5
23SW MTP         1350                                 N/A           3/ 5
HUDSON CANYON    NOT AVBL
EXECUTION ROCKS  NOT AVBL
WESTERN LI SOUND NOT AVBL
CENTRAL LI SOUND NOT AVBL
EASTERN LI SOUND 1400            43     290/ 10/ 14   N/A
ROBBINS REEF     1400            43     300/ 18/ 21 1010.9
$$


>>>>>>>>>>>>>>>>>>>>>>>>>>>> KEY <<<<<<<<<<<<<<<<<<<<<<<<<<<
>                                                          <
>     SKY/WX - SKY CONDITION/PRESENT WEATHER               <
>     TMP    - TEMPERATURE IN FAHRENHEIT                   <
>     DP     - DEWPOINT IN FAHRENHEIT                      <
>     RH     - RELATIVE HUMIDITY IN PERCENT                <
>     WIND   - DIRECTION AND SPEED IN MPH                  <
>     PRES   - MEAN SEA LEVEL PRESSURE IN INCHES OF HG     <
>     WCI    - WIND CHILL INDEX                            <
>     VSB    - VISIBILITY IN MILES                         <
>     HX     - HEAT INDEX                                  <
>     TC     - TEMPERATURE IN CELSIUS                      <
>     VRB    - VARIABLE WIND DIRECTION                     <
>                                                          <
>>>>>>>>>>>>>>>>>>>>>>>>>>>> KEY <<<<<<<<<<<<<<<<<<<<<<<<<<<





USA.gov is the U.S. government's official web portal to all federal, state and local government web resources and services.